Location: Westminster College Observatory
(41.1194°N, 80.3291°W)
Time: 12:04:28
(UTC-04:00)

OTV 5 (USA 277) - Visible Passes

Search period start: 22 July 2018 00:00
Search period end: 01 August 2018 00:00
Orbit: 312 x 321 km, 54.5° (Epoch: 05 July)

Date Brightness Start Highest point End Pass type
(mag) Time Alt. Az. Time Alt. Az. Time Alt. Az.
27 Jul ? 05:39:04 10° S 05:41:21 24° SE 05:43:38 10° ENE visible
29 Jul ? 04:35:23 14° SSE 04:36:06 15° SE 04:37:44 10° E visible
30 Jul ? 04:49:27 29° S 04:50:22 42° SE 04:52:56 10° ENE visible
31 Jul ? 05:03:28 25° WSW 05:04:46 58° NW 05:07:27 10° NE visible
